This is the latest recevied weather packets stored in our database for station/object K1WJY. If no packets are shown the sender has not sent any weather packets the latest 1 day(s).
| Time | Temp. | Humidity | Pressure | Rain* | Wind** | Luminosity | Snow |
|---|---|---|---|---|---|---|---|
| 1778011248 | 14.44° C | 82% | 1009.1 hPa | 0 mm | 1.79 m/s, 245° | 420 W/m² | - |
| 1778010944 | 14.44° C | 82% | 1009.5 hPa | 0 mm | 4.02 m/s, 235° | 409 W/m² | - |
| 1778010642 | 14.44° C | 82% | 1009.5 hPa | 0 mm | 2.68 m/s, 203° | 403 W/m² | - |
| 1778010339 | 15° C | 81% | 1009.5 hPa | 0 mm | 4.02 m/s, 174° | 400 W/m² | - |
| 1778010034 | 15.56° C | 80% | 1009.7 hPa | 0 mm | 2.68 m/s, 122° | 422 W/m² | - |
| 1778009731 | 15.56° C | 80% | 1009.4 hPa | 0 mm | 2.24 m/s, 199° | 489 W/m² | - |
| 1778009428 | 15° C | 81% | 1009.3 hPa | 0 mm | 2.24 m/s, 245° | 422 W/m² | - |
| 1778009127 | 15.56° C | 80% | 1009.5 hPa | 0 mm | 1.79 m/s, 257° | 474 W/m² | - |
| 1778008824 | 16.11° C | 78% | 1009.4 hPa | 0 mm | 2.24 m/s, 248° | 501 W/m² | - |
| 1778008522 | 16.11° C | 77% | 1009.3 hPa | 0 mm | 4.02 m/s, 303° | 507 W/m² | - |
| 1778008220 | 16.11° C | 77% | 1009.3 hPa | 0 mm | 1.79 m/s, 271° | 546 W/m² | - |
| 1778007914 | 16.11° C | 78% | 1009.3 hPa | 0 mm | 1.34 m/s, 268° | 530 W/m² | - |
| 1778007611 | 16.11° C | 77% | 1009.2 hPa | 0 mm | 1.79 m/s, 267° | 533 W/m² | - |
| 1778007308 | 16.11° C | 77% | 1009.4 hPa | 0 mm | 2.24 m/s, 284° | 544 W/m² | - |
| 1778007004 | 17.22° C | 75% | 1009.5 hPa | 0 mm | 4.47 m/s, 122° | 558 W/m² | - |
| 1778006701 | 17.22° C | 74% | 1009.3 hPa | 0 mm | 1.79 m/s, 241° | 564 W/m² | - |
| 1778006397 | 16.67° C | 76% | 1009.1 hPa | 0 mm | 1.79 m/s, 118° | 583 W/m² | - |
| 1778006094 | 16.67° C | 76% | 1009.3 hPa | 0 mm | 1.79 m/s, 265° | 588 W/m² | - |
| 1778005791 | 16.11° C | 77% | 1009.5 hPa | 0 mm | 2.24 m/s, 208° | 583 W/m² | - |
| 1778005488 | 16.67° C | 76% | 1009.4 hPa | 0 mm | 3.13 m/s, 218° | 607 W/m² | - |
| 1778005184 | 16.11° C | 77% | 1009.6 hPa | 0 mm | 1.34 m/s, 168° | 610 W/m² | - |
| 1778004882 | 16.11° C | 76% | 1009.8 hPa | 0 mm | 2.24 m/s, 283° | 641 W/m² | - |
| 1778004578 | 16.11° C | 77% | 1009.6 hPa | 0 mm | 3.13 m/s, 223° | 648 W/m² | - |
| 1778004274 | 15.56° C | 79% | 1009.8 hPa | 0 mm | 0.89 m/s, 237° | 671 W/m² | - |
| 1778003971 | 15° C | 79% | 1009.9 hPa | 0 mm | 4.92 m/s, 151° | 647 W/m² | - |
* Rain latest hour (hover to see other rain measurements)
** Current wind speed in m/s (hover to see current wind gust speed)